White Plains, CT

6:57 PM EST on November 18, 2019 (GMT -0500)
Westchester County

Weather History for KHPN - September, 2019

Change the Weather History Date:

Tuesday, September 24, 2019

  Actual Average Record
Temperature  
Mean Temperature 66 °F -  
Max Temperature 75 °F 68 °F 90 °F (2017)
Min Temperature 57 °F 51 °F 36 °F (1974)
Cooling Degree Days 2    
Growing Degree Days 16 (Base 50)    
Moisture  
Dew Point 54 °F    
Average Humidity 63    
Maximum Humidity 84    
Minimum Humidity 43    
Precipitation  
Precipitation 0.01 in - - ()
Sea Level Pressure  
Sea Level Pressure 29.78 in    
Wind  
Wind Speed 8 mph ()    
Max Wind Speed 18 mph    
Max Gust Speed 25 mph    
Visibility 10.0 miles    
Events      
Averages and records for this station are not official NWS values.
T = Trace of Precipitation, MM = Missing Value Source: Averaged Metar Reports

Daily Weather History Graph

Daily Weather History Graph

Search for Another Location

Airport or City:

Astronomy

Sep. 24, 2019 Rise Set
Actual Time 6:44 AM EDT 6:49 PM EDT
Civil Twilight 6:16 AM EDT 7:16 PM EDT
Nautical Twilight 5:44 AM EDT 7:48 PM EDT
Astronomical Twilight 5:11 AM EDT 8:21 PM EDT
Moon 1:23 AM EDT (9/24) 4:35 PM EDT (9/24)
Length of Visible Light 12h 59m
Length of Day
12h 04m
Waning Crescent, 23% of the Moon is Illuminated
Sep 24
Waning Crescent
Sep 28
New
Oct 5
First Quarter
Oct 13
Full
Oct 21
Last Quarter

Hourly Weather History & Observations

Time (EDT) Temp. Dew Point Humidity Pressure Visibility Wind Dir Wind Speed Gust Speed Precip Events Conditions
12:56 AM 71.1 °F 66.0 °F 84% 29.73 in 10.0 mi WNW 8.1 mph - 0.01 in   Mostly Cloudy
1:56 AM 69.1 °F 62.1 °F 78% 29.73 in 10.0 mi West 4.6 mph - N/A   Scattered Clouds
2:56 AM 66.9 °F 60.1 °F 79% 29.73 in 10.0 mi West 6.9 mph - N/A   Partly Cloudy
3:56 AM 66.0 °F 60.1 °F 81% 29.73 in 10.0 mi West 6.9 mph - N/A   Partly Cloudy
4:56 AM 64.9 °F 60.1 °F 84% 29.74 in 10.0 mi West 6.9 mph - N/A   Partly Cloudy
5:56 AM 64.9 °F 57.0 °F 75% 29.75 in 10.0 mi West 9.2 mph - N/A   Clear
6:56 AM 64.0 °F 55.9 °F 75% 29.77 in 10.0 mi WNW 12.7 mph - N/A   Clear
7:56 AM 64.9 °F 55.9 °F 73% 29.78 in 10.0 mi West 9.2 mph - N/A   Clear
8:56 AM 66.9 °F 57.0 °F 70% 29.78 in 10.0 mi WNW 8.1 mph - N/A   Partly Cloudy
9:56 AM 68.0 °F 55.0 °F 63% 29.79 in 10.0 mi West 6.9 mph - N/A   Mostly Cloudy
10:56 AM 68.0 °F 55.0 °F 63% 29.79 in 10.0 mi WNW 10.4 mph - N/A   Mostly Cloudy
11:56 AM 70.0 °F 53.1 °F 55% 29.79 in 10.0 mi WNW 18.4 mph 24.2 mph N/A   Mostly Cloudy
12:56 PM 72.0 °F 52.0 °F 49% 29.77 in 10.0 mi WNW 16.1 mph 21.9 mph N/A   Mostly Cloudy
1:56 PM 71.1 °F 50.0 °F 47% 29.76 in 10.0 mi WNW 13.8 mph - N/A   Mostly Cloudy
2:56 PM 72.0 °F 50.0 °F 46% 29.76 in 10.0 mi WNW 11.5 mph 23.0 mph N/A   Mostly Cloudy
3:56 PM 73.9 °F 50.0 °F 43% 29.76 in 10.0 mi WNW 18.4 mph 24.2 mph N/A   Mostly Cloudy
4:56 PM 71.1 °F 51.1 °F 49% 29.77 in 10.0 mi WNW 18.4 mph 25.3 mph N/A   Partly Cloudy
5:56 PM 70.0 °F 48.9 °F 47% 29.79 in 10.0 mi NW 13.8 mph 25.3 mph N/A   Partly Cloudy
6:56 PM 69.1 °F 46.0 °F 44% 29.81 in 10.0 mi NW 13.8 mph 24.2 mph N/A   Scattered Clouds
7:56 PM 66.0 °F 46.9 °F 50% 29.83 in 10.0 mi NW 10.4 mph - N/A   Partly Cloudy
8:56 PM 64.0 °F 48.0 °F 56% 29.86 in 10.0 mi WNW 10.4 mph - N/A   Clear
9:56 PM 62.1 °F 48.9 °F 62% 29.87 in 10.0 mi WNW 4.6 mph - N/A   Clear
10:56 PM 60.1 °F 50.0 °F 69% 29.87 in 10.0 mi West 5.8 mph - N/A   Clear
11:56 PM 57.0 °F 50.0 °F 77% 29.87 in 10.0 mi West 3.5 mph - N/A   Clear